When you browse on this site, cookies collect data to enhance your experience and personalize the content and advertising you see.
Visit our Privacy Policy to learn more. By continuing to use the site, you agree to this use of cookies and data.
  • In Lithuania
  • List of Countries
  • For 7 days
  • Water Temperature
  • Satellite Maps
  • Weather Map
  • Weather Widgets
  • user-avatar
    Login

    Hourly Weather Rava-Russkaya

    Today, 18 January, Friday

    Time Temperature Precipitation Wind Pressure Humidity
    00:00 0°C° 0.2 mm 5 mps 732 mmHg 88%
    01:00 0°C° 0.2 mm 5 mps 732 mmHg 89%
    02:00 +1°C° 0 mm 3 mps 732 mmHg 93%
    03:00 +1°C° 0.1 mm 3 mps 732 mmHg 94%
    04:00 0°C° 0.1 mm 4 mps 732 mmHg 94%
    05:00 0°C° 0.1 mm 4 mps 732 mmHg 94%
    06:00 0°C° 0.1 mm 4 mps 732 mmHg 93%
    07:00 0°C° 0.1 mm 4 mps 732 mmHg 92%
    08:00 0°C° 0.1 mm 5 mps 733 mmHg 91%
    09:00 0°C° 0.1 mm 5 mps 733 mmHg 91%
    10:00 0°C° 0.1 mm 5 mps 734 mmHg 91%
    11:00 0°C° 0.1 mm 5 mps 734 mmHg 92%
    12:00 0°C° 0 mm 5 mps 734 mmHg 88%
    13:00 0°C° 0 mm 5 mps 735 mmHg 85%
    14:00 0°C° 0 mm 5 mps 735 mmHg 81%
    15:00 -1°C° 0 mm 5 mps 736 mmHg 81%
    16:00 -1°C° 0 mm 5 mps 736 mmHg 81%
    17:00 -2°C° 0 mm 5 mps 737 mmHg 80%
    18:00 -2°C° 0 mm 5 mps 738 mmHg 84%
    19:00 -3°C° 0 mm 4 mps 738 mmHg 87%
    20:00 -3°C° 0 mm 4 mps 739 mmHg 90%
    21:00 -4°C° 0 mm 3 mps 739 mmHg 90%
    22:00 -4°C° 0 mm 3 mps 740 mmHg 89%
    23:00 -4°C° 0 mm 2 mps 741 mmHg 89%

    Tomorrow, 19 January, Saturday

    Time Temperature Precipitation Wind Pressure Humidity
    00:00 -4°C° 0 mm 2 mps 741 mmHg 89%
    01:00 -4°C° 0 mm 2 mps 742 mmHg 89%
    02:00 -4°C° 0 mm 2 mps 742 mmHg 90%
    03:00 -5°C° 0 mm 3 mps 743 mmHg 90%
    04:00 -5°C° 0 mm 3 mps 743 mmHg 90%
    05:00 -6°C° 0 mm 3 mps 743 mmHg 90%
    06:00 -6°C° 0 mm 3 mps 743 mmHg 91%
    07:00 -5°C° 0 mm 2 mps 744 mmHg 92%
    08:00 -5°C° 0 mm 2 mps 744 mmHg 92%
    09:00 -4°C° 0 mm 2 mps 744 mmHg 90%
    10:00 -4°C° 0 mm 2 mps 744 mmHg 87%
    11:00 -3°C° 0 mm 2 mps 745 mmHg 85%
    12:00 -3°C° 0 mm 2 mps 744 mmHg 82%
    13:00 -2°C° 0 mm 2 mps 744 mmHg 79%
    14:00 -2°C° 0 mm 2 mps 744 mmHg 76%
    15:00 -1°C° 0 mm 1 mps 744 mmHg 79%
    16:00 -1°C° 0 mm 1 mps 744 mmHg 82%
    17:00 -2°C° 0 mm 1 mps 744 mmHg 85%
    18:00 -2°C° 0 mm 1 mps 744 mmHg 86%
    19:00 -4°C° 0 mm 2 mps 744 mmHg 87%
    20:00 -5°C° 0 mm 2 mps 744 mmHg 88%
    21:00 -5°C° 0 mm 2 mps 744 mmHg 87%
    22:00 -5°C° 0 mm 2 mps 743 mmHg 87%
    23:00 -5°C° 0 mm 2 mps 743 mmHg 86%

    Day after tomorrow, 20 January, Sunday

    Time Temperature Precipitation Wind Pressure Humidity
    00:00 -6°C° 0 mm 2 mps 743 mmHg 87%
    01:00 -7°C° 0 mm 3 mps 742 mmHg 87%
    02:00 -7°C° 0 mm 3 mps 742 mmHg 88%
    03:00 -7°C° 0 mm 3 mps 741 mmHg 90%
    04:00 -7°C° 0 mm 3 mps 741 mmHg 91%
    05:00 -7°C° 0 mm 3 mps 740 mmHg 92%
    06:00 -6°C° 0 mm 2 mps 740 mmHg 92%
    07:00 -6°C° 0 mm 2 mps 740 mmHg 91%
    08:00 -3°C° 0 mm 1 mps 740 mmHg 91%
    09:00 -3°C° 0 mm 1 mps 740 mmHg 88%
    10:00 -2°C° 0 mm 1 mps 740 mmHg 84%
    11:00 -2°C° 0 mm 1 mps 740 mmHg 81%
    12:00 -1°C° 0 mm 1 mps 739 mmHg 79%
    13:00 -1°C° 0 mm 1 mps 739 mmHg 76%
    14:00 -1°C° 0 mm 1 mps 739 mmHg 74%
    15:00 -1°C° 0 mm 1 mps 739 mmHg 77%
    16:00 -1°C° 0 mm 1 mps 739 mmHg 80%
    17:00 -1°C° 0 mm 1 mps 739 mmHg 83%
    18:00 -1°C° 0 mm 1 mps 739 mmHg 84%
    19:00 -4°C° 0 mm 2 mps 739 mmHg 85%
    20:00 -4°C° 0 mm 2 mps 740 mmHg 86%
    21:00 -4°C° 0 mm 2 mps 740 mmHg 85%
    22:00 -5°C° 0 mm 2 mps 740 mmHg 85%
    23:00 -5°C° 0 mm 2 mps 741 mmHg 85%

    21 January, Monday

    Time Temperature Precipitation Wind Pressure Humidity
    00:00 -5°C° 0 mm 2 mps 741 mmHg 85%
    01:00 -6°C° 0 mm 2 mps 741 mmHg 84%
    02:00 -7°C° 0 mm 3 mps 741 mmHg 84%
    03:00 -6°C° 0 mm 3 mps 742 mmHg 86%
    04:00 -6°C° 0 mm 3 mps 742 mmHg 88%
    05:00 -6°C° 0 mm 3 mps 742 mmHg 89%
    06:00 -6°C° 0 mm 3 mps 743 mmHg 91%
    07:00 -5°C° 0 mm 2 mps 743 mmHg 92%
    08:00 -5°C° 0 mm 2 mps 744 mmHg 94%
    09:00 -5°C° 0 mm 2 mps 744 mmHg 88%
    10:00 -4°C° 0 mm 2 mps 745 mmHg 82%
    11:00 -2°C° 0 mm 1 mps 745 mmHg 77%
    12:00 -2°C° 0 mm 1 mps 745 mmHg 71%
    13:00 -1°C° 0 mm 1 mps 745 mmHg 64%
    14:00 -1°C° 0 mm 1 mps 745 mmHg 58%
    15:00 -2°C° 0 mm 1 mps 745 mmHg 62%
    16:00 -2°C° 0 mm 1 mps 746 mmHg 66%
    17:00 -4°C° 0 mm 0 mps 746 mmHg 69%
    18:00 -3°C° 0 mm 1 mps 746 mmHg 71%
    19:00 -3°C° 0 mm 1 mps 746 mmHg 72%
    20:00 -4°C° 0 mm 1 mps 746 mmHg 73%
    21:00 -4°C° 0 mm 1 mps 746 mmHg 76%
    22:00 -4°C° 0 mm 1 mps 746 mmHg 79%
    23:00 -6°C° 0 mm 2 mps 746 mmHg 81%

    22 January, Tuesday

    Time Temperature Precipitation Wind Pressure Humidity
    00:00 -7°C° 0 mm 2 mps 746 mmHg 84%
    01:00 -7°C° 0 mm 2 mps 745 mmHg 86%
    02:00 -7°C° 0 mm 2 mps 745 mmHg 88%
    03:00 -7°C° 0 mm 2 mps 745 mmHg 89%
    04:00 -8°C° 0 mm 2 mps 744 mmHg 89%
    05:00 -8°C° 0 mm 2 mps 744 mmHg 89%
    06:00 -8°C° 0 mm 2 mps 744 mmHg 89%
    07:00 -9°C° 0 mm 2 mps 743 mmHg 89%
    08:00 -9°C° 0 mm 2 mps 743 mmHg 89%
    09:00 -8°C° 0 mm 2 mps 743 mmHg 83%
    10:00 -7°C° 0 mm 2 mps 742 mmHg 78%
    11:00 -6°C° 0 mm 2 mps 742 mmHg 72%
    12:00 -6°C° 0 mm 2 mps 741 mmHg 70%
    13:00 -5°C° 0 mm 2 mps 741 mmHg 68%
    14:00 -4°C° 0 mm 2 mps 740 mmHg 65%
    15:00 -5°C° 0 mm 2 mps 739 mmHg 71%
    16:00 -5°C° 0 mm 2 mps 739 mmHg 77%
    17:00 -6°C° 0 mm 2 mps 738 mmHg 83%
    18:00 -7°C° 0 mm 3 mps 738 mmHg 85%
    19:00 -7°C° 0 mm 3 mps 737 mmHg 86%
    20:00 -8°C° 0 mm 4 mps 737 mmHg 88%
    21:00 -8°C° 0 mm 4 mps 736 mmHg 88%
    22:00 -8°C° 0 mm 4 mps 736 mmHg 89%
    23:00 -9°C° 0 mm 4 mps 735 mmHg 89%

    23 January, Wednesday

    Time Temperature Precipitation Wind Pressure Humidity
    00:00 -9°C° 0 mm 4 mps 735 mmHg 89%
    01:00 -9°C° 0 mm 4 mps 734 mmHg 90%
    02:00 -9°C° 0 mm 4 mps 734 mmHg 90%
    03:00 -9°C° 0 mm 4 mps 733 mmHg 90%
    04:00 -9°C° 0 mm 4 mps 732 mmHg 91%
    05:00 -10°C° 0 mm 4 mps 732 mmHg 91%
    06:00 -10°C° 0 mm 4 mps 731 mmHg 91%
    07:00 -10°C° 0 mm 5 mps 731 mmHg 91%
    08:00 -10°C° 0 mm 5 mps 731 mmHg 91%
    09:00 -8°C° 0 mm 5 mps 730 mmHg 89%
    10:00 -7°C° 0 mm 5 mps 730 mmHg 87%
    11:00 -6°C° 0 mm 6 mps 730 mmHg 86%
    12:00 -5°C° 0 mm 6 mps 729 mmHg 85%
    13:00 -4°C° 0 mm 6 mps 729 mmHg 85%
    14:00 -3°C° 0 mm 6 mps 728 mmHg 85%
    15:00 -2°C° 0 mm 5 mps 728 mmHg 87%
    16:00 -2°C° 0 mm 5 mps 727 mmHg 89%
    17:00 -2°C° 0 mm 4 mps 727 mmHg 91%
    18:00 -2°C° 0 mm 5 mps 727 mmHg 91%
    19:00 -2°C° 0 mm 5 mps 727 mmHg 91%
    20:00 -3°C° 0 mm 6 mps 727 mmHg 91%
    21:00 -2°C° 0 mm 6 mps 727 mmHg 89%
    22:00 -2°C° 0 mm 7 mps 727 mmHg 88%
    23:00 -2°C° 0 mm 7 mps 727 mmHg 87%
    Show more